When you browse on this site, cookies collect data to enhance your experience and personalize the content and advertising you see.
Visit our Privacy Policy to learn more. By continuing to use the site, you agree to this use of cookies and data.
  • In Österreich
  • Länderverzeichnis
  • Für 7 Tage
  • Wassertemperatur
  • Wetterkarte
  • News
  • Widgets
  • user-avatar
    Anmelden

    Stündliche Wetter San Agustín Tlaxiaca

    Heute, 17 September, Dienstag

    Zeit Temperatur Niederschläge Wind Luftdruck Luftfeuchtigkeit
    00:00 +13°C° 0 mm 1 m/S 574 mmHg 94%
    01:00 +11°C° 0 mm 0 m/S 573 mmHg 94%
    02:00 +11°C° 0 mm 0 m/S 573 mmHg 94%
    03:00 +11°C° 0 mm 0 m/S 573 mmHg 94%
    04:00 +11°C° 0 mm 0 m/S 573 mmHg 95%
    05:00 +10°C° 0 mm 0 m/S 573 mmHg 95%
    06:00 +13°C° 0 mm 1 m/S 574 mmHg 89%
    07:00 +15°C° 0 mm 1 m/S 575 mmHg 83%
    08:00 +16°C° 0 mm 1 m/S 576 mmHg 78%
    09:00 +18°C° 0 mm 1 m/S 576 mmHg 73%
    10:00 +19°C° 0 mm 2 m/S 577 mmHg 68%
    11:00 +20°C° 0 mm 2 m/S 577 mmHg 64%
    12:00 +20°C° 0.1 mm 3 m/S 577 mmHg 62%
    13:00 +21°C° 0.1 mm 3 m/S 576 mmHg 61%
    14:00 +21°C° 0.1 mm 4 m/S 576 mmHg 59%
    15:00 +21°C° 0.3 mm 3 m/S 575 mmHg 64%
    16:00 +20°C° 0.3 mm 3 m/S 575 mmHg 70%
    17:00 +19°C° 0.3 mm 3 m/S 575 mmHg 75%
    18:00 +17°C° 0.6 mm 3 m/S 575 mmHg 80%
    19:00 +16°C° 0.6 mm 2 m/S 575 mmHg 85%
    20:00 +15°C° 0.6 mm 2 m/S 575 mmHg 91%
    21:00 +14°C° 0 mm 2 m/S 574 mmHg 92%
    22:00 +14°C° 0 mm 1 m/S 574 mmHg 93%
    23:00 +13°C° 0 mm 1 m/S 574 mmHg 94%

    Morgen, 18 September, Mittwoch

    Zeit Temperatur Niederschläge Wind Luftdruck Luftfeuchtigkeit
    00:00 +13°C° 0 mm 1 m/S 573 mmHg 94%
    01:00 +13°C° 0 mm 1 m/S 573 mmHg 93%
    02:00 +12°C° 0 mm 0 m/S 573 mmHg 93%
    03:00 +12°C° 0 mm 0 m/S 573 mmHg 93%
    04:00 +12°C° 0 mm 0 m/S 573 mmHg 92%
    05:00 +11°C° 0 mm 0 m/S 573 mmHg 92%
    06:00 +13°C° 0 mm 0 m/S 574 mmHg 85%
    07:00 +15°C° 0 mm 0 m/S 575 mmHg 78%
    08:00 +19°C° 0 mm 1 m/S 576 mmHg 71%
    09:00 +20°C° 0.4 mm 1 m/S 576 mmHg 67%
    10:00 +21°C° 0.4 mm 1 m/S 577 mmHg 62%
    11:00 +23°C° 0.4 mm 1 m/S 577 mmHg 57%
    12:00 +23°C° 2 mm 2 m/S 577 mmHg 59%
    13:00 +21°C° 2 mm 2 m/S 576 mmHg 62%
    14:00 +21°C° 2 mm 3 m/S 575 mmHg 64%
    15:00 +20°C° 2.4 mm 3 m/S 575 mmHg 69%
    16:00 +19°C° 2.4 mm 3 m/S 575 mmHg 75%
    17:00 +18°C° 2.4 mm 3 m/S 574 mmHg 80%
    18:00 +17°C° 2.4 mm 2 m/S 574 mmHg 83%
    19:00 +17°C° 2.4 mm 2 m/S 575 mmHg 86%
    20:00 +16°C° 2.4 mm 1 m/S 575 mmHg 88%
    21:00 +16°C° 0.9 mm 1 m/S 575 mmHg 87%
    22:00 +16°C° 0.9 mm 1 m/S 575 mmHg 87%
    23:00 +16°C° 0.9 mm 1 m/S 575 mmHg 86%

    übermorgen, 19 September, Donnerstag

    Zeit Temperatur Niederschläge Wind Luftdruck Luftfeuchtigkeit
    00:00 +15°C° 0.1 mm 1 m/S 574 mmHg 87%
    01:00 +15°C° 0.1 mm 1 m/S 574 mmHg 87%
    02:00 +14°C° 0.1 mm 0 m/S 574 mmHg 88%
    03:00 +14°C° 0 mm 1 m/S 573 mmHg 88%
    04:00 +14°C° 0 mm 1 m/S 573 mmHg 88%
    05:00 +13°C° 0 mm 1 m/S 573 mmHg 89%
    06:00 +15°C° 0 mm 1 m/S 574 mmHg 82%
    07:00 +16°C° 0 mm 1 m/S 574 mmHg 76%
    08:00 +19°C° 0 mm 1 m/S 575 mmHg 69%
    09:00 +19°C° 0 mm 2 m/S 576 mmHg 62%
    10:00 +21°C° 0 mm 3 m/S 576 mmHg 56%
    11:00 +24°C° 0 mm 3 m/S 577 mmHg 49%
    12:00 +22°C° 0.5 mm 4 m/S 576 mmHg 53%
    13:00 +22°C° 0.5 mm 4 m/S 575 mmHg 57%
    14:00 +22°C° 0.5 mm 5 m/S 575 mmHg 61%
    15:00 +20°C° 0.8 mm 4 m/S 574 mmHg 66%
    16:00 +19°C° 0.8 mm 4 m/S 574 mmHg 71%
    17:00 +18°C° 0.8 mm 4 m/S 573 mmHg 76%
    18:00 +17°C° 0.7 mm 4 m/S 573 mmHg 81%
    19:00 +16°C° 0.7 mm 3 m/S 573 mmHg 85%
    20:00 +14°C° 0.7 mm 3 m/S 573 mmHg 90%
    21:00 +14°C° 0.1 mm 2 m/S 573 mmHg 91%
    22:00 +14°C° 0.1 mm 2 m/S 573 mmHg 92%
    23:00 +13°C° 0.1 mm 1 m/S 573 mmHg 92%

    20 September, Freitag

    Zeit Temperatur Niederschläge Wind Luftdruck Luftfeuchtigkeit
    00:00 +13°C° 0 mm 1 m/S 572 mmHg 92%
    01:00 +13°C° 0 mm 1 m/S 572 mmHg 92%
    02:00 +12°C° 0 mm 1 m/S 572 mmHg 91%
    03:00 +12°C° 0 mm 1 m/S 572 mmHg 91%
    04:00 +12°C° 0 mm 1 m/S 572 mmHg 91%
    05:00 +10°C° 0 mm 0 m/S 572 mmHg 91%
    06:00 +12°C° 0 mm 0 m/S 573 mmHg 85%
    07:00 +15°C° 0 mm 1 m/S 574 mmHg 78%
    08:00 +18°C° 0 mm 1 m/S 575 mmHg 72%
    09:00 +19°C° 0 mm 1 m/S 575 mmHg 63%
    10:00 +21°C° 0 mm 1 m/S 576 mmHg 54%
    11:00 +23°C° 0 mm 2 m/S 576 mmHg 45%
    12:00 +22°C° 0 mm 3 m/S 576 mmHg 45%
    13:00 +24°C° 0 mm 3 m/S 576 mmHg 45%
    14:00 +23°C° 0 mm 4 m/S 576 mmHg 45%
    15:00 +21°C° 0.2 mm 4 m/S 575 mmHg 56%
    16:00 +20°C° 0.2 mm 4 m/S 574 mmHg 67%
    17:00 +18°C° 0.2 mm 4 m/S 574 mmHg 78%
    18:00 +17°C° 0.1 mm 3 m/S 574 mmHg 83%
    19:00 +16°C° 0.1 mm 3 m/S 574 mmHg 88%
    20:00 +14°C° 0.1 mm 2 m/S 574 mmHg 93%
    21:00 +14°C° 0 mm 2 m/S 574 mmHg 93%
    22:00 +14°C° 0 mm 2 m/S 574 mmHg 93%
    23:00 +13°C° 0 mm 1 m/S 574 mmHg 93%

    21 September, Samstag

    Zeit Temperatur Niederschläge Wind Luftdruck Luftfeuchtigkeit
    00:00 +13°C° 0 mm 1 m/S 574 mmHg 93%
    01:00 +13°C° 0 mm 1 m/S 573 mmHg 93%
    02:00 +12°C° 0 mm 1 m/S 573 mmHg 93%
    03:00 +11°C° 0 mm 0 m/S 573 mmHg 93%
    04:00 +11°C° 0 mm 0 m/S 573 mmHg 92%
    05:00 +11°C° 0 mm 0 m/S 573 mmHg 91%
    06:00 +12°C° 0 mm 0 m/S 574 mmHg 85%
    07:00 +14°C° 0 mm 0 m/S 575 mmHg 79%
    08:00 +15°C° 0 mm 0 m/S 576 mmHg 73%
    09:00 +19°C° 0 mm 1 m/S 576 mmHg 64%
    10:00 +21°C° 0 mm 1 m/S 577 mmHg 54%
    11:00 +23°C° 0 mm 2 m/S 577 mmHg 44%
    12:00 +22°C° 0 mm 3 m/S 577 mmHg 45%
    13:00 +22°C° 0 mm 4 m/S 576 mmHg 46%
    14:00 +23°C° 0 mm 5 m/S 576 mmHg 47%
    15:00 +21°C° 0 mm 5 m/S 576 mmHg 56%
    16:00 +20°C° 0 mm 4 m/S 575 mmHg 64%
    17:00 +18°C° 0 mm 4 m/S 575 mmHg 73%
    18:00 +17°C° 0 mm 3 m/S 574 mmHg 79%
    19:00 +14°C° 0 mm 3 m/S 574 mmHg 84%
    20:00 +14°C° 0 mm 2 m/S 574 mmHg 90%
    21:00 +14°C° 0 mm 2 m/S 574 mmHg 90%
    22:00 +13°C° 0 mm 1 m/S 574 mmHg 90%
    23:00 +13°C° 0 mm 1 m/S 574 mmHg 90%

    22 September, Sonntag

    Zeit Temperatur Niederschläge Wind Luftdruck Luftfeuchtigkeit
    00:00 +12°C° 0 mm 1 m/S 573 mmHg 90%
    01:00 +11°C° 0 mm 0 m/S 573 mmHg 90%
    02:00 +11°C° 0 mm 0 m/S 573 mmHg 90%
    03:00 +11°C° 0 mm 0 m/S 573 mmHg 90%
    04:00 +10°C° 0 mm 0 m/S 573 mmHg 90%
    05:00 +10°C° 0 mm 0 m/S 573 mmHg 90%
    06:00 +12°C° 0 mm 0 m/S 574 mmHg 82%
    07:00 +14°C° 0 mm 0 m/S 575 mmHg 74%
    08:00 +16°C° 0 mm 0 m/S 576 mmHg 66%
    09:00 +20°C° 0 mm 1 m/S 577 mmHg 58%
    10:00 +20°C° 0 mm 2 m/S 577 mmHg 51%
    11:00 +23°C° 0 mm 2 m/S 578 mmHg 44%
    12:00 +22°C° 0 mm 3 m/S 577 mmHg 44%
    13:00 +23°C° 0 mm 4 m/S 577 mmHg 44%
    14:00 +23°C° 0 mm 5 m/S 576 mmHg 44%
    15:00 +22°C° 0 mm 4 m/S 576 mmHg 54%
    16:00 +20°C° 0 mm 4 m/S 575 mmHg 63%
    17:00 +19°C° 0 mm 4 m/S 575 mmHg 73%
    18:00 +17°C° 0 mm 3 m/S 574 mmHg 79%
    19:00 +16°C° 0 mm 2 m/S 574 mmHg 86%
    20:00 +14°C° 0 mm 2 m/S 574 mmHg 92%
    21:00 +13°C° 0 mm 1 m/S 574 mmHg 91%
    22:00 +13°C° 0 mm 1 m/S 574 mmHg 90%
    23:00 +12°C° 0 mm 1 m/S 574 mmHg 90%
    Mehr zeigen